Погода в Яшкуле

Погода в Яшкуле : погода сейчас, прогноз погоды и архив. Всё, что Вы хотите узнать о погоде в Яшкуле!

Хотите узнать прогноз погоды в Яшкуле? Тогда Вам сюда: Погода в Яшкуле

Поиск расширенной информации на нашем сайте:

Другие новости

Новости СМИ2

Главная страница сайта

Новости сайта

02.10.2013

Напоминаем, что на нашем новом сайте вы можете получить высокодетализированные прогнозы погоды по пунктам России, СНГ и мира (включающие важные для авиации метеовеличины, такие как направление и скорость ветра, видимость, явления погоды, количество и форма облачности, нижняя и верхняя граница облачности), а также ознакомиться с разнообразными материалами по авиационной метеорологии и подборкой полезных ссылок на эту тему.

Сайт Метеоцентр.Азия посвящён разработке технологий оптимизации авиаметеорологического обслуживания, включая проектирование и перспективное создание нескольких автоматизированных авиаметеорологических систем:
- система выпуска высокодетальных прогностических карт явлений погоды для нижнего воздушного пространства по России и ближнему зарубежью;
- система верификации прогнозов TAF (выпускаемых синоптиками официальных АМСГ РФ и ближнего зарубежья) и AUTOTAF (выпускаемых сайтом Метеоцентр.Азия) - выявление ошибок, онлайн-сопоставление с фактической погодой METAR, автоматическое внесение коррективов в прогнозы при резком отклонении фактической погоды от прогноза, подсчёт оправдываемости прогнозов по элементам и в целом;
- система обработки, анализа и отображения авиаметеорологической информации для применения провайдерами метеорологической информации.

Рекомендуем: Одн-2003 - противогололедные материалы.

Погода в Яшкуле - сегодня

Время (UTC), дата Ветер
(°,м/с) 
Видим.   Явления Облачность Т
(°С)
Тd
(°С)
f(%) Тe
(°С)
Pmin
(гПа)
dP
(гПа)
Po
(мм)
O2
(г/м3)
Тmin Tmax R s Состояние
почвы
00 21.01.17 250 (З) 6-10{12}  20000 м    10/0 средняя 
[Ac As]
-4.7 -7.1 83 -9  1022.9  -1.1  768  316           
03 21.01.17 260 (З) 6{11}  20000 м    10/0 средняя 
[Ac As]
-4.6 -6.8 85 -9  1021.8  -1.1  767  315  -5.1      равномерный
сухой снег
100% 
06 21.01.17 260 (З) 5{10}  20000 м    10/0 средняя 
[Ac As]
-3.7 -5.5 87 -7  1022.1  0.3  767  314           
09 21.01.17 260 (З) 4{11}  20000 м    10/10 300 м 
[St]
-2.5 -4.4 87 -5  1021.1  -1  767  312           
12 21.01.17 270 (З) 5{12}  20000 м    10/5 300 м средняя 
[St|Ac As]
-1.9 -4.8 81 -5  1019.6  -1  765  311           
15 21.01.17 260 (З) 20000 м    10/10 300 м 
[St]
-1.9 -3.1 91 -5  1018.7  -0.9  765  311    -1.6       
18 21.01.17 240 (ЮЗ) 20000 м    10/5 300 м средняя 
[St|Ac As]
-1.3 -2.5 92 -4  1017.2  -1.4  764  309           
21 21.01.17 260 (З) 10 км  слаб. снег  10/10 300 м 
[Frnb|Ns]
-0.2 -0.7 96 -3  1015.7  -1.5  762  308           
00 22.01.17 280 (З) 9-15{17}  20000 м  {снег}  10/0 средняя 
[Ac As]
-1.3 -3.2 87 -6  1015.5  -0.2  762  309           
03 22.01.17 290 (З) 8-13{18}  20000 м  {снег}  10/8 300 м средняя 
[St|Ac As]
-0.7 -2.5 88 -5  1017.7  2.3  764  309  -1.9       
06 22.01.17 310 (СЗ) 4{13}  20000 м  {снег}  ясно 
-5.2 -10.4 67 -8  1023.2  5.4  768  317  -5.5         
09 22.01.17 290 (З) 20000 м  {снег}  ясно 
-1.6 -7.5 64 -5  1025.2  770  313           
12 22.01.17 280 (З) 20000 м    ясно 
-0.8 -8.2 57 -4  1026.4  1.2  770  312           
15 22.01.17 260 (З) 20000 м    ясно 
-5.1 -8.5 77 -8  1027.7  1.2  771  318    -0.6       
18 22.01.17 240 (ЮЗ) 20000 м    ясно 
-6.2 -8.2 86 -10  1027.4  -0.2  771  319           
21 22.01.17 240 (ЮЗ) 20000 м    ясно 
-6.2 -8.4 84 -10  1026.8  -0.6  771  319           
00 23.01.17 240 (ЮЗ) 20000 м    ясно 
-6.8 -8.8 86 -11  1025.2  -1.6  770  319           
03 23.01.17 270 (З) 6-11{12}  20000 м    10/0 средняя 
[Ac As]
-3.2 -8.1 69 -7  1024.2  -1  769  314  -7.4      равномерный
сухой снег
100% 
06 23.01.17 270 (З) 7-11{13}  20000 м    10/0 средняя 
[Ac As]
-2.3 -6.4 73 -7  1025.8  1.5  770  314           
09 23.01.17 270 (З) 7-11{14}  20000 м    10/0 средняя 
[Ac As]
-0.8 -4.3 77 -5  1026.8  0.9  771  312           
12 23.01.17 270 (З) 6-10{14}  20000 м    10/0 средняя 
[Ac As]
-0.3 -4.1 75 -4  1026.5  -0.3  771  311           
15 23.01.17 250 (З) 4{10}  20000 м    10/0 средняя 
[Ac As]
+0 -3.5 77 -2  1026.9  0.4  771  311    +0.5       
18 23.01.17 230 (ЮЗ) 20000 м    10/0 средняя 
[Ac As]
-0.4 -4.3 75 -2  1026.4  -0.5  770  311           
21 23.01.17 250 (З) 20000 м    10/0 средняя 
[Ac As]
-0.7 -4.3 77 -4  1025.6  -0.8  770  312           
00 24.01.17 240 (ЮЗ) 20000 м    10/0 средняя 
[Ac As]
-1.6 -4.5 81 -5  1025.1  -0.5  770  312           
Время (UTC), дата Ветер
(°,м/с) 
Видим.   Явления Облачность Т
(°С)
Тd
(°С)
f(%) Тe
(°С)
Pmin
(гПа)
dP
(гПа)
Po
(мм)
O2
(г/м3)
Тmin Tmax R s Состояние
почвы

Для получения пояснительной информации подведите курсор к названию столбца.

ПОГОДА в Яшкуле - архив

Всё, что Вы хотите узнать о погоде в Яшкуле - удобно и подробно!

Выберите нужную дату (начиная с 1 января 2015* года) и нажмите кнопку "Найти".
Будут отображены архивные сводки погоды по пункту Яшкуль, начиная с указанной даты.


Отображать данные в формате CSV (для использования в таблицах Excel)


Внимание! Наш архив погоды предназначен исключительно для личного некоммерческого использования в познавательных целях. Если Вам необходимы официальные справки о состоянии погоды (для производственных, юридических, коммерческих и т.п. целей), обращайтесь в органы Росгидромета.

*Примечание: данная дата относится к архиву по метеостанциям СССР (Россия, СНГ, Балтия).
Архив по метеостанциям Зарубежной Европы и Азии (кроме Китая) хранится 10 дней, по другим регионам земного шара (Китай, Африка, Америка, Австралия, Океания) - 1 день.

Яшкуль - район местоположения метеостанции


Название, широта, долгота, высота метеостанции:
Яшкуль 46.2°ш. 45.3°д. -7 м над ур. моря [Российская Федерация]

Дополнительная информация

В oтличие oт бoльшинства пoгoдных сайтoв мы публикуем пoдрoбную метеoинфoрмацию в детальнoм прoфессиoнальнoм фoрмате.

Характеристики температуры и влажнoсти вoздуха измеряются на высoте 2 м в тени вдали oт зданий и деревьев.
Скoрoсть ветра измеряется на высoте 10 м (на урoвне рoста челoвека скoрoсть ветра ниже в 1.5-2 раза). Если метеoстанция нахoдится в гoрoде или в лесу, тo скoрoсть ветра занижена на 2-4 м/с пo сравнению с oткрытым местoм. Скoрoсть ветра над акватoриями крупных рек и oзёр, а также на вершинах хoлмoв на 2-5 м/с выше, чем в oбычных услoвиях.
Атмoсфернoе давление в разных тoчках местнoсти мoжет значительнo oтличаться oт давления на метеoстанции, в зависимoсти oт услoвий рельефа (при пoдъёме на 10 м давление пoнижается примернo на 1 мм рт.ст.).